DW9727 Weather Reports


time (UTC)temp
F
wind
direction
speed
knots
gust
knots
rain 1hr
in
rain 24hr
in
rain mn
in
humidity
%
barometer
mb
20260506113711 34 305 1.7 2.6 0.00 0.00 0.00 70 1018.5
20260506112710 34 294 1.7 2.6 0.00 0.00 0.00 69 1018.7
20260506111711 35 294 0.9 1.7 0.00 0.00 0.00 69 1018.3
20260506110710 35 294 0.9 1.7 0.00 0.00 0.00 70 1018.3
20260506105710 35 294 0.9 2.6 0.00 0.00 0.00 71 1018.2
20260506104711 35 294 0.9 1.7 0.00 0.00 0.00 70 1018.1
20260506103711 35 294 0.9 2.6 0.00 0.00 0.00 69 1017.9
20260506102711 35 294 1.7 2.6 0.00 0.00 0.00 69 1018.0
20260506101711 35 296 0.9 2.6 0.00 0.00 0.00 69 1018.0
20260506095710 35 292 1.7 2.6 0.00 0.00 0.00 70 1017.8
20260506093710 36 298 0.0 1.7 0.00 0.00 0.00 67 1017.7
20260506092710 36 297 0.0 1.7 0.00 0.00 0.00 67 1017.5
20260506091710 37 302 0.9 2.6 0.00 0.00 0.00 67 1017.5
20260506090712 37 331 0.9 2.6 0.00 0.00 0.00 67 1017.5
20260506085710 37 313 0.9 2.6 0.00 0.00 0.00 67 1017.5
20260506083710 38 293 0.9 1.7 0.00 0.00 0.00 66 1017.0
20260506082710 38 293 1.7 2.6 0.00 0.00 0.00 64 1017.0
20260506081710 39 312 0.9 0.9 0.00 0.00 0.00 63 1016.8
20260506080711 39 312 0.0 0.0 0.00 0.00 0.00 61 1016.8
20260506072710 41 312 0.9 1.7 0.00 0.00 0.00 60 1016.8
20260506070711 42 9 0.0 0.0 0.00 0.00 0.00 55 1016.6
20260506061710 44 9 0.9 1.7 0.00 0.00 0.00 50 1016.4
20260506060710 44 11 0.9 1.7 0.00 0.00 0.00 49 1016.4
20260506044711 46 11 1.7 2.6 0.00 0.01 0.01 46 1015.9
20260506043710 46 5 0.9 2.6 0.00 0.01 0.01 46 1015.8
20260506042710 46 25 1.7 2.6 0.00 0.01 0.01 45 1015.7
20260506041711 47 19 0.9 2.6 0.00 0.01 0.01 44 1015.7
20260506040710 47 336 0.9 1.7 0.00 0.01 0.01 46 1015.8
20260506035710 47 11 0.9 2.6 0.00 0.01 0.01 43 1015.6
20260506034711 47 6 1.7 2.6 0.00 0.01 0.01 42 1015.6
20260506033710 48 5 0.9 2.6 0.00 0.01 0.01 43 1015.7
20260506031711 48 12 1.7 2.6 0.00 0.01 0.01 43 1015.2
20260506030710 48 30 1.7 2.6 0.00 0.01 0.01 42 1015.2
20260506025711 48 0 1.7 6.1 0.00 0.01 0.01 41 1015.1
20260506024711 48 13 1.7 4.3 0.00 0.01 0.01 42 1014.9
20260506023710 49 15 1.7 2.6 0.00 0.01 0.01 41 1014.8
20260506022710 49 334 2.6 4.3 0.00 0.01 0.01 40 1014.6
20260506021710 49 5 1.7 7.8 0.00 0.01 0.01 41 1014.3
20260506020710 50 354 2.6 8.7 0.00 0.01 0.01 40 1014.1
20260506015710 50 5 2.6 7.0 0.00 0.01 0.01 40 1014.0
20260506014710 51 11 1.7 4.3 0.00 0.01 0.01 39 1013.9
20260506013710 51 15 2.6 6.1 0.00 0.01 0.01 38 1013.6
20260506012710 51 22 3.5 8.7 0.00 0.01 0.01 37 1013.6
20260506011710 52 18 1.7 7.8 0.00 0.01 0.01 35 1013.6
20260506005710 53 331 6.1 13.0 0.00 0.01 0.01 34 1013.2
20260506004711 53 9 5.2 10.4 0.00 0.01 0.01 35 1013.1
20260506003710 53 348 5.2 8.7 0.00 0.01 0.01 35 1012.9
20260506002710 53 3 6.1 10.4 0.00 0.01 0.01 35 1012.8
20260506001710 53 349 5.2 12.2 0.00 0.01 0.01 36 1012.9
20260506000710 54 0 7.8 13.9 0.00 0.01 0.01 36 1012.9
20260505233710 54 334 8.7 14.8 0.00 0.01 0.01 36 1012.7
20260505232710 55 332 7.8 17.4 0.00 0.01 0.01 35 1012.6
20260505231711 55 325 8.7 14.8 0.00 0.01 0.01 38 1012.5
20260505230710 55 305 7.0 20.9 0.00 0.01 0.01 37 1012.5
20260505225710 55 304 7.0 15.6 0.00 0.01 0.01 37 1012.5
20260505223710 56 336 9.6 15.6 0.00 0.01 0.01 37 1012.5
20260505222711 56 17 7.8 18.2 0.00 0.01 0.01 38 1012.5
20260505220710 58 313 8.7 19.1 0.00 0.01 0.01 36 1012.4
20260505215710 58 298 11.3 17.4 0.00 0.01 0.01 38 1012.4
20260505214710 58 325 13.9 20.0 0.00 0.01 0.01 36 1012.2
20260505212710 58 335 12.2 20.9 0.00 0.01 0.01 37 1012.4
20260505211710 59 23 8.7 17.4 0.00 0.01 0.01 35 1012.3
20260505210710 60 327 10.4 15.6 0.00 0.01 0.01 39 1012.5
20260505205710 60 34 11.3 18.2 0.00 0.01 0.01 36 1012.4
20260505203710 60 286 11.3 14.8 0.00 0.01 0.01 40 1012.5
20260505200710 58 9 7.8 13.9 0.00 0.01 0.01 40 1012.9
20260505195710 58 315 3.5 14.8 0.00 0.01 0.01 40 1013.0
20260505194711 60 315 8.7 15.6 0.00 0.01 0.01 44 1013.1
20260505192710 60 264 8.7 13.9 0.00 0.01 0.01 44 1013.3
20260505191711 59 35 6.1 10.4 0.00 0.01 0.01 47 1013.3
20260505190711 59 327 6.1 13.9 0.00 0.01 0.01 42 1013.4
20260505185711 59 317 6.1 12.2 0.00 0.01 0.01 45 1013.3
20260505184711 57 325 6.1 11.3 0.00 0.01 0.01 44 1013.3
20260505182710 56 324 7.8 11.3 0.00 0.01 0.01 45 1013.5
20260505175710 56 309 5.2 12.2 0.00 0.01 0.01 51 1013.7
20260505174710 56 13 4.3 10.4 0.00 0.01 0.01 45 1013.8
20260505173710 55 308 3.5 10.4 0.00 0.01 0.01 49 1013.9
20260505172710 55 306 7.0 13.0 0.00 0.01 0.01 48 1014.2
20260505171711 55 288 4.3 10.4 0.00 0.01 0.01 45 1014.1
20260505170710 53 336 2.6 7.0 0.00 0.01 0.01 48 1014.0
20260505165710 54 298 4.3 7.8 0.00 0.01 0.01 56 1014.0
20260505163710 51 336 4.3 7.8 0.00 0.01 0.01 54 1014.0
20260505162710 52 336 4.3 10.4 0.00 0.01 0.01 56 1014.2
20260505161710 52 315 2.6 7.0 0.00 0.01 0.01 53 1014.1
20260505160710 51 297 2.6 5.2 0.00 0.01 0.01 55 1014.1
20260505152710 51 52 2.6 7.0 0.00 0.01 0.01 55 1013.3
20260505151710 51 15 1.7 6.1 0.00 0.01 0.01 60 1013.3
20260505150710 50 322 4.3 7.8 0.00 0.01 0.01 60 1013.3
20260505124711 44 325 1.7 2.6 0.00 0.01 0.01 73 1011.6
20260505122711 44 327 1.7 4.3 0.00 0.01 0.01 73 1011.3
20260505121710 44 323 1.7 2.6 0.00 0.01 0.01 73 1011.1
20260505120710 44 329 1.7 2.6 0.00 0.01 0.01 74 1010.9
20260505115710 44 9 0.9 1.7 0.00 0.01 0.01 72 1010.6
20260505114710 44 13 0.0 1.7 0.00 0.01 0.01 70 1010.4